155 serials | sibelius 6 registration number

Date Name Success Rate
2011-09-08 10:25:56 Cheyenne Bitware V4.0 Registration Number 60%
2009-10-22 23:49:53 Sibelius 2 100%
2011-09-08 12:47:32 Sibelius 1.0 0%
2011-09-08 12:47:32 sibelius 3.1.1 0%
2011-09-08 12:47:32 Sibelius v1.0 0%
2012-12-13 07:30:36 Sibelius 6 87%
2012-12-13 07:30:39 Sibelius 7 35%
2009-10-17 06:32:15 Sibelius Auralia V3.0 38%
2009-10-22 23:49:53 Sibelius Auralia V3.0-Lz0 0%
2009-10-22 23:49:53 Sibelius Student 18%
2011-09-08 10:42:09 DAS Registration 1.5.2 69%
2011-09-08 10:42:09 DAS Registration For CW5 0%
2011-09-08 10:42:09 DAS Registration v1.5.2 0%
2009-10-17 06:27:02 Lazarus Registration DLL V1.0 59%
2009-10-22 23:48:48 MemoriesonTV Registration 0%
2009-10-22 23:49:42 Registration Wizard 40%
2011-09-08 10:06:47 AnetHelpTool v4.02 Registration 52%
2011-09-08 10:22:13 ByeLines Registration 60%
2011-09-08 10:57:42 Ftgate Registration 63%
2011-09-08 11:15:16 Infodex v2.10 Registration 0%
2011-09-08 11:25:08 Lazarus Registration DLL v1.0 0%
2011-09-08 11:27:46 Mac Opener v3.0 Registration 57%
2011-09-08 11:32:59 mIRC v4.5+ Registration 60%
2011-09-08 11:32:59 mIRC v4.52 Registration 60%
2011-09-08 12:37:02 Quant v2.0 Registration 0%
2011-09-08 12:41:14 Registration Suite 1.0 60%
2011-09-08 12:41:14 Registration Suite v1.0 60%
2011-09-08 12:41:14 Registration Wizard Pro 5.01 46%
2011-09-08 12:41:14 Registration Wizard Pro v5.01 60%
2011-09-08 13:18:59 WinHacker 95 v2.02 Registration 57%
2012-12-13 05:12:00 Registration Key : 526EFEF086E09600449E667EA2DAE8E2E6D642BC 83%
2009-10-22 23:27:21 Ardamax Keylogger 2.9 Registration 56%
2009-10-22 23:48:49 Microsoft Registration Hacker - 39%
2009-10-22 23:49:57 SoudForge ALL (No Registration Requiered) 0%
2009-10-22 23:50:26 Valve's Registration Armor Key-Gen 60%
2011-09-08 10:21:42 Browserola v1.01 Temp. Registration 0%
2011-09-08 10:56:11 FontLook v3.1 Registration Code 86%
2011-09-08 11:31:51 Microsoft Registration Hacker 0%
2011-09-08 11:31:51 Microsoft Registration Hacker - 0%
2011-09-08 11:31:51 Microsoft Registration HackerMSREGHACK 0%
2011-09-08 11:32:07 Microstation v5.xx.xx & 95 FULL REGISTRATION 48%
2011-09-08 11:42:43 Nic O'Matic 1.6 Registration Code 50%
2011-09-08 11:42:43 Nic O'Matic v1.6 Registration Code 55%
2011-09-08 12:34:57 PolyTrans V1.2E Registration Activator CD-Key 62%
2011-09-08 12:34:57 PolyView v2.9b16 Registration 0%
2011-09-08 12:54:09 Time Registration (German) 1.10 0%
2011-09-08 12:59:30 Super Collapse Registration 100%
2011-09-08 13:23:15 Yipe! II for Windows Registration #154 0%
2012-12-13 08:49:53 Softwarenetz Time Registration v1.10 0%
2012-12-13 08:49:56 Softwarenetz Time Registration v1.14 0%
2012-12-13 15:34:10 Valve's Registration Armor Key-Gen 0%
2009-10-22 23:48:17 Internet Download Manager Registration 50%
2011-09-08 11:31:51 Microsoft Registration Hacker MSREGHACK 80%
2011-09-08 11:31:51 Microsoft Visual Basic 5 registration cd key 72%
2011-09-08 12:54:14 TimeSlips 10.5 enterprise - with registration code! 0%
2012-12-12 08:07:32 Download avast 5.0.667 Antivirus registration 0%
2012-12-13 05:12:00 Registration Code For PDFZilla Giveaway 0%
2012-12-13 05:12:00 Registration key for x-3gp-video-converter-38540 54%
2012-12-13 13:12:40 Total Image Converter Registration Key 57%
2011-09-08 11:30:16 MediaBlaze 98 v1.01 Win95/NT User: delphic Registration 0%
2012-12-13 05:12:00 Registration code:-826510-16101-266644 71%
2009-10-22 23:49:02 Norton Internet Security 2005 Registration Guide 0%
2011-09-08 09:58:40 Acoustica Mixcraft v1.10 Build 15 Registration Info by MaBi 60%
2012-12-12 19:40:26 Microsoft Visual Basic 2008 Express Edition Registration key 20%
2009-10-22 23:45:53 Color By Number 2.0 81%
2009-10-22 23:49:02 Number Crunch 1.0 66%
2009-10-22 23:49:02 Number Hunt 1.0 0%
2009-10-22 23:49:21 PDF Page Number 1.0.2 0%
2011-09-08 09:45:43 25 Number Game v1.4 80%
2011-09-08 10:27:53 Color By Number 2.0 58%
2011-09-08 10:27:53 Color By Number v1.0 0%
2011-09-08 11:29:50 Matlab v6.5.1 PLP Number 0%
2011-09-08 11:43:41 Number Crunch 1.0 0%
2011-09-08 11:43:41 Number Crunch v1.0 57%
2011-09-08 11:43:41 Number Hunt 1.0 0%
2011-09-08 12:29:28 PDF Page Number 1.02 0%
2011-09-08 12:29:28 PDF Page Number v1.02 0%
2011-09-08 13:17:37 WinApiOblets v1.02 Use this Number 0%
2009-10-17 06:28:46 Number Nine Software Melon V2.0.0.47-CRD 0%
2009-10-22 23:46:26 DFX FOR ALL PLAYERS 7.2 Serial Number: 66%
2009-10-22 23:47:42 Ephypad No Version Number 0%
2009-10-22 23:48:06 Halo 2 Serial Number 32%
2009-10-22 23:48:46 MatLab V6.5.1 PLP Serial Number 62%
2009-10-22 23:49:02 Number Nine Software Melon V2.0.0.47 0%
2009-10-22 23:49:51 SchoolGrad 2.0 SERIAL NUMBER 50%
2009-10-22 23:49:59 StarCraft Serial Number!! 37%
2011-09-08 10:49:37 Ephypad No version number 0%
2011-09-08 11:02:09 Gear audio v1.0 Number 0%
2011-09-08 11:06:33 Hex WorkShop Serial Number 58%
2011-09-08 11:15:19 Informed Number Server 1.0.2 80%
2011-09-08 11:15:19 Informed Number Server v1.0.2 0%
2011-09-08 11:27:18 Lottery Number $elector 2.0 52%
2011-09-08 11:27:18 Lottery Number $elector v2.0 56%
2011-09-08 11:27:18 Lottery Number Picker 3.52 53%
2011-09-08 11:27:18 Lottery Number Picker v3.52 52%
2011-09-08 11:34:54 Mr. Matt v2.06 32-bit License Number 30%
2011-09-08 11:43:41 Number Hunt v1.0 by Sponge Uk 0%
2011-09-08 12:24:59 Mr. Matt v2.06 32-bit License Number 0%
2011-09-08 12:33:25 Photovista Customer Number 0%
2011-09-08 12:36:39 Prime Number Spiral v6.56 0%
2011-09-08 12:46:25 Secure Number Fonts 3.6 11%
2011-09-08 12:48:28 SLNet Number: 1234567 76%
2011-09-08 13:18:38 Windraft v2.02 Maximum Number 56%
2012-12-12 20:19:08 Mobile number database v.1 56%
2012-12-13 11:59:23 Technocom Number Generator v1.6 65%
2009-10-17 06:28:46 Number Nine Software PennyWise 2007-CRD 29%
2009-10-22 23:45:54 Condition Zero Real Serial Number 49%
2009-10-22 23:46:26 DFX 8.0 For All Player Except Divx 8.0 Serial Number: 20%
2009-10-22 23:47:53 Free Serial Number Illustrator CS3 81%
2009-10-22 23:49:02 Number Nine Software PennyWise.2007 0%
2009-10-22 23:49:35 QuickTime Player 6.5.2 Serial Number 63%
2009-10-22 23:49:58 Spell-Mell No Version Number 0%
2011-09-08 10:28:35 Condition Zero Real Serial Number 77%
2011-09-08 11:02:11 Gear v4.3 for Windows95 & Windows NT v4.0 Number is 66%
2011-09-08 11:15:09 Incremental Serial Number Printer 1.0.0.7 0%
2011-09-08 11:22:05 Kudos no version number given - possibly 1.0 0%
2011-09-08 12:33:25 PhotoVista Customer Number: 57770 First 0%
2011-09-08 12:33:52 Pinnacle Studio 9 SE serial number 81%
2011-09-08 12:40:24 Random Clock Number Generator 1.0 0%
2011-09-08 12:40:24 Random Clock Number Generator v1.0 63%
2011-09-08 12:51:10 Spell-Mell no version number by DBC 0%
2012-12-12 00:18:49 After Effects Serial Number Work 36%
2012-12-13 07:20:42 Setup Factory 8.0 Serial Number 0%
2012-12-13 10:39:03 STOIK Color By Number v4.0.2.3383 0%
2009-10-17 06:27:56 MediaCam AV Creator V5.0.1.0 Serial Number By HaMMerHeAD 56%
2009-10-17 06:33:31 TurboBackup V6.0 Bld 0020240118 Serial Number By HaMMerHeAD 54%
2009-10-22 23:27:11 ACID Music Studio 6 Serial Number 68%
2009-10-22 23:46:26 DFX For Windows Media Player 6.4 Serial Number: 71%
2009-10-22 23:47:50 FIFA Manager 2005 Serial Number 60%
2009-10-22 23:48:50 Mobile Phone IMEI (Serial) Number 77%
2009-10-22 23:50:34 Whats On My Computer 1.0.1.30 Retail Serial Number; 62%
2009-10-22 23:50:46 Xilisoft Video Converter 3.1 Serial Number 78%
2011-09-08 10:32:08 credit card number american express 61%
2011-09-08 11:22:02 Kremlin v2.1 32-bit Choosea random 4 digit number 0%
2011-09-08 12:38:46 Protel Advanced Schematic v3.20 EDA License Number 0%
2011-09-08 13:17:11 Whats on my computer 1.0.1.30 Retail Serial number 60%
2011-09-08 13:17:11 Whats on my computer 1.0.1.30 Retail Serial number; 62%
2009-10-22 23:48:48 MFL-Adobe Photoshop Elements 2 0 Multilanguage With Serial Number 65%
2009-10-22 23:48:59 Nero 6 Reloaded 6.6.0.1 Future Versions Serial Number 60%
2009-10-22 23:50:10 Tiger Woods PGA Tour 2004 Serial Number 0%
2009-10-22 23:50:13 TuneUp Utilities 2007 6.0.1255 Serial Number 62%
2011-09-08 12:33:52 Pinnacle Studio 9 (delivered with Dazzle) serial number 70%
2011-09-08 13:00:40 SyGate v1.1 for Windows 95 Keymaker or Enter a Number in HEX MAX 0xFFFFFFF by FFF 0%
2009-10-22 23:27:27 AVG Anti Virus 8.5 Pro Free + Serial Number Untill 2018 73%
2009-10-22 23:48:17 Intuit TurboTax Premier Tax Year 2002 No Version Number 0%
2009-10-22 23:48:53 MySoftwareFactory Hail Stone Number Checker V1.0.2078.36626 59%
2011-09-08 11:16:48 Intuit TurboTax Premier Tax Year 2002 No version number 0%
2011-09-08 12:38:46 Protel Advanced Schematic License Number: 2003970 Access 0%
2011-09-08 12:38:46 Protel Advanced Schematic v3.20 EDA License Number: 2005792 Access 67%
2009-10-17 06:28:08 MySoftwareFactory Hail Stone Number Checker V1.0.2078.36626-ROGUE 0%
2009-10-22 23:49:19 Panda Antivirus Platinum Internet Security 2006 10.00.00 Serial Number 58%
2009-10-17 06:22:15 Elfring Fonts Secure Number Fonts V3.6 47%
2009-10-22 23:47:41 Elfring Fonts Secure Number Fonts 3.6 0%
2009-10-22 23:47:50 Fifa 2009 2009 Serial Number 76%
2011-09-08 12:34:02 Pinnacle Studio Plus, Studio 9 Plus 9.3.0 serial number 56%